Weather Roundup
Issued by NWS

Home | Current Version | Previous Version | Graphics & Text | Print | Product List | Glossary Off
Versions: 1 2 3 4 5 6 7 8 9 10 11 12 13 14 15 16 17 18 19 20 21 22 23 24 25 26 27 28 29 30 31 32 33 34 35 36 37 38 39 40 41 42 43 44 45 46 47 48 49 50

000
NZUS93 KARX 250359
HRRWXR

CURRENT HOURLY OBSERVATIONS ACROSS
MUCH OF THE UPPER MISSISSIPPI VALLEY
NATIONAL WEATHER SERVICE LA CROSSE WI
1100 PM CDT THU APR 24 2014


...SOUTHEAST MINNESOTA...


CITY           SKY/WX    TMP DP  RH WIND       PRES   REMARKS
ROCHESTER      CLOUDY    42  38  85 NW8       29.74S
ROCHESTER/MAYO CLOUDY    45  40  82 W8        29.74S
WINONA         CLOUDY    45  41  87 NW5       29.74R
AUSTIN         MOCLDY    43  39  87 CALM      29.75R
ALBERT LEA     MOCLDY    43  41  93 CALM      29.75S FOG
DODGE CENTER   MOCLDY    45  41  87 W3        29.74S
PRESTON        CLOUDY    43  40  88 NW5       29.74S
OWATONNA       PTCLDY    39  36  87 CALM      29.75S
FARIBAULT      PTCLDY    41  36  81 CALM      29.75R
$$

...ELSEWHERE IN MINNESOTA...


CITY           SKY/WX    TMP DP  RH WIND       PRES   REMARKS
MINNEAPOLIS    CLEAR     42  38  85 CALM      29.73S
INTNL FALLS    LGT SNOW  33  31  92 E7        29.72F FOG     WCI  27
DULUTH         LGT SNOW  32  31  96 E10       29.67F FOG     WCI  24
RED WING       CLOUDY    45  41  87 NW6       29.73R
REDWOOD FALLS  CLEAR     46  41  82 SW9       29.74S
MANKATO        CLEAR     45  39  81 SW6       29.75R
WORTHINGTON    CLEAR     45  36  70 S7        29.79R
FAIRMONT       CLEAR     45  39  81 SW5       29.78R
$$

...SOUTHWEST WISCONSIN...


CITY           SKY/WX    TMP DP  RH WIND       PRES   REMARKS
LA CROSSE      CLOUDY    46  40  79 W12       29.72S
PRAIRIE DU CHI CLOUDY    48  44  86 NW9       29.72R
BOSCOBEL       CLOUDY    50  46  86 W6        29.71R
LONE ROCK      CLOUDY    50  49  96 W3        29.68F FOG
PLATTEVILLE    CLOUDY    50  49  95 W7        29.69F VSB 1/2
FORT MC COY    CLOUDY    45  44  96 W7        29.72R FOG
CAMP DOUGLAS   DRIZZLE   46  46 100 W9        29.69S FOG
VIROQUA        CLOUDY    45  45 100 NW10      29.70S
WIS DELLS      DRZL/FOG  46  44  95 E3        29.67F VSB 1
$$

...ELSEWHERE IN WISCONSIN...


CITY           SKY/WX    TMP DP  RH WIND       PRES   REMARKS
MILWAUKEE      LGT RAIN  46  35  65 SE12      29.72F
MADISON        LGT RAIN  48  46  93 SE13      29.65F FOG
GREEN BAY      LGT RAIN  41  38  89 E8        29.75F
EAU CLAIRE     CLOUDY    43  42  97 W7        29.70S
BLACK RVR FLS  CLOUDY    45  45 100 W6        29.71S FOG
MEDFORD        HVY RAIN  39  38  97 SE9       29.69R WCI  32
WAUSAU         LGT RAIN  39  39 100 SE10      29.68F FOG     WCI  32
WIS RAPIDS     LGT RAIN  41  39  93 SE9       29.69F FOG
MARSHFIELD     CLOUDY    41  40  96 S6        29.69R FOG
RICE LAKE      CLOUDY    41  40  95 W9        29.71S FOG
$$

...NORTHEAST IOWA...


CITY           SKY/WX    TMP DP  RH WIND       PRES   REMARKS
WATERLOO       CLOUDY    44  41  89 NW8       29.75S
DUBUQUE        CLOUDY    49  47  93 N14       29.69S FOG
DECORAH        CLOUDY    45  43  93 NW6       29.73S
MASON CITY     MOCLDY    39  38  96 W5        29.78R
CHARLES CITY   CLOUDY    43  41  93 W5        29.76R
OELWEIN        CLOUDY   N/A N/A N/A NW10      29.74S
$$

...ELSEWHERE IN IOWA...


CITY           SKY/WX    TMP DP  RH WIND       PRES   REMARKS
DES MOINES     CLOUDY    49  43  80 NW7       29.80R
IOWA CITY      CLOUDY    50  47  89 NW15G22   29.72R
FORT DODGE     PTCLDY    43  39  87 CALM      29.79R
MARSHALLTOWN   CLOUDY    43  42  97 NW7       29.76S
CEDAR RAPIDS   CLOUDY    48  46  93 NW13      29.72R FOG
$$

...NORTHERN ILLINOIS...


CITY           SKY/WX    TMP DP  RH WIND       PRES   REMARKS
CHICAGO-OHARE  LGT RAIN  53  38  56 E12       29.67F
DUPAGE         CLOUDY    56  35  45 E10       29.64F
CHICAGO-MIDWAY LGT RAIN  59  30  33 SE13      29.67F
MOLINE         LGT RAIN  53  51  93 NW9       29.66R FOG
ROCKFORD       LGT RAIN  54  42  64 CALM      29.69S
STERLING       CLOUDY    54  48  82 N12       29.65S
PEORIA         CLOUDY    58  54  86 W7        29.62R
$$

NOTE: "FAIR" INDICATES FEW OR NO CLOUDS BELOW 12,000 FEET WITH NO
SIGNIFICANT WEATHER AND/OR OBSTRUCTIONS TO VISIBILITY. WIND
SPEEDS ARE IN MILES-PER-HOUR.



USA.gov is the U.S. government's official web portal to all federal, state and local government web resources and services.